Time,TemperatureF,DewpointF,PressureIn,WindDirection,WindDirectionDegrees,WindSpeedMPH,WindSpeedGustMPH,Humidity,HourlyPrecipIn,Conditions,Clouds,dailyrainin,SoftwareType,DateUTC
2013-06-23 00:00:00,67.4,23.7,29.68,NE,47,0.0,0.0,19,0.00,,---,0.00,VWS V14.01,2013-06-23 07:00:00,
2013-06-23 00:01:00,67.5,23.8,29.67,NE,49,0.0,0.0,19,0.00,,---,0.00,VWS V14.01,2013-06-23 07:01:00,
2013-06-23 00:05:00,67.5,23.8,29.67,NE,50,0.0,0.0,19,0.00,,---,0.00,VWS V14.01,2013-06-23 07:05:00,
2013-06-23 00:06:00,67.5,23.8,29.68,NE,50,0.0,0.0,19,0.00,,---,0.00,VWS V14.01,2013-06-23 07:06:00,
2013-06-23 00:10:00,67.4,23.7,29.67,NE,51,0.0,0.0,19,0.00,,---,0.00,VWS V14.01,2013-06-23 07:10:00,
2013-06-23 00:11:00,67.2,22.3,29.68,NE,56,0.0,1.0,18,0.00,,---,0.00,VWS V14.01,2013-06-23 07:11:00,
2013-06-23 00:15:00,67.2,22.3,29.67,ENE,75,0.0,2.0,18,0.00,,---,0.00,VWS V14.01,2013-06-23 07:15:00,
2013-06-23 00:16:00,67.0,23.4,29.67,East,88,2.0,3.0,19,0.00,,---,0.00,VWS V14.01,2013-06-23 07:16:00,
2013-06-23 00:20:00,67.0,23.4,29.67,East,90,3.0,5.0,19,0.00,,---,0.00,VWS V14.01,2013-06-23 07:20:00,
2013-06-23 00:21:00,67.0,23.4,29.67,East,90,3.0,5.0,19,0.00,,---,0.00,VWS V14.01,2013-06-23 07:21:00,
2013-06-23 00:25:00,66.9,23.3,29.67,East,90,4.0,5.0,19,0.00,,---,0.00,VWS V14.01,2013-06-23 07:25:00,
2013-06-23 00:26:00,66.7,23.2,29.67,East,90,1.0,4.0,19,0.00,,---,0.00,VWS V14.01,2013-06-23 07:26:00,
2013-06-23 00:30:00,66.4,22.9,29.67,East,90,4.0,4.0,19,0.00,,---,0.00,VWS V14.01,2013-06-23 07:30:00,
2013-06-23 00:31:00,66.1,23.9,29.67,East,95,1.0,5.0,20,0.00,,---,0.00,VWS V14.01,2013-06-23 07:31:00,
2013-06-23 00:35:00,65.9,23.7,29.67,East,95,0.0,5.0,20,0.00,,---,0.00,VWS V14.01,2013-06-23 07:35:00,
2013-06-23 00:36:00,65.7,23.6,29.67,East,95,0.0,1.0,20,0.00,,---,0.00,VWS V14.01,2013-06-23 07:36:00,
2013-06-23 00:40:00,65.6,23.5,29.67,East,95,0.0,1.0,20,0.00,,---,0.00,VWS V14.01,2013-06-23 07:40:00,
2013-06-23 00:41:00,65.4,23.3,29.67,East,95,2.0,2.0,20,0.00,,---,0.00,VWS V14.01,2013-06-23 07:41:00,
2013-06-23 00:45:00,65.3,23.2,29.67,East,96,2.0,3.0,20,0.00,,---,0.00,VWS V14.01,2013-06-23 07:45:00,
2013-06-23 00:46:00,65.2,24.3,29.67,East,98,3.0,3.0,21,0.00,,---,0.00,VWS V14.01,2013-06-23 07:46:00,
2013-06-23 00:50:00,65.0,23.0,29.67,East,99,0.0,3.0,20,0.00,,---,0.00,VWS V14.01,2013-06-23 07:50:00,
2013-06-23 00:51:00,65.1,23.1,29.67,East,98,0.0,3.0,20,0.00,,---,0.00,VWS V14.01,2013-06-23 07:51:00,
2013-06-23 00:55:00,65.2,23.1,29.67,East,98,0.0,3.0,20,0.00,,---,0.00,VWS V14.01,2013-06-23 07:55:00,
2013-06-23 00:56:00,65.1,23.1,29.67,East,99,0.0,1.0,20,0.00,,---,0.00,VWS V14.01,2013-06-23 07:56:00,
2013-06-23 01:00:00,65.1,23.1,29.67,East,99,0.0,3.0,20,0.00,,---,0.00,VWS V14.01,2013-06-23 08:00:00,
2013-06-23 01:01:00,65.3,23.2,29.67,East,99,2.0,3.0,20,0.00,,---,0.00,VWS V14.01,2013-06-23 08:01:00,
2013-06-23 01:05:00,65.4,24.5,29.67,East,98,2.0,4.0,21,0.00,,---,0.00,VWS V14.01,2013-06-23 08:05:00,
2013-06-23 01:06:00,65.9,24.9,29.67,East,98,2.0,3.0,21,0.00,,---,0.00,VWS V14.01,2013-06-23 08:06:00,
2013-06-23 01:10:00,66.1,23.9,29.67,East,98,1.0,3.0,20,0.00,,---,0.00,VWS V14.01,2013-06-23 08:10:00,
2013-06-23 01:11:00,66.3,24.1,29.67,East,99,2.0,3.0,20,0.00,,---,0.00,VWS V14.01,2013-06-23 08:11:00,
2013-06-23 01:15:00,66.4,24.1,29.67,East,99,2.0,3.0,20,0.00,,---,0.00,VWS V14.01,2013-06-23 08:15:00,
2013-06-23 01:16:00,66.4,25.3,29.67,East,98,0.0,3.0,21,0.00,,---,0.00,VWS V14.01,2013-06-23 08:16:00,
2013-06-23 01:20:00,66.4,25.3,29.67,East,98,0.0,3.0,21,0.00,,---,0.00,VWS V14.01,2013-06-23 08:20:00,
2013-06-23 01:21:00,66.3,25.2,29.67,East,99,0.0,2.0,21,0.00,,---,0.00,VWS V14.01,2013-06-23 08:21:00,
2013-06-23 01:25:00,66.2,25.1,29.67,East,98,0.0,2.0,21,0.00,,---,0.00,VWS V14.01,2013-06-23 08:25:00,
2013-06-23 01:26:00,66.0,25.0,29.67,East,98,0.0,0.0,21,0.00,,---,0.00,VWS V14.01,2013-06-23 08:26:00,
2013-06-23 01:30:00,65.9,24.9,29.67,East,98,0.0,0.0,21,0.00,,---,0.00,VWS V14.01,2013-06-23 08:30:00,
2013-06-23 01:31:00,65.6,24.6,29.67,East,99,0.0,0.0,21,0.00,,---,0.00,VWS V14.01,2013-06-23 08:31:00,
2013-06-23 01:35:00,65.5,24.6,29.67,East,99,0.0,0.0,21,0.00,,---,0.00,VWS V14.01,2013-06-23 08:35:00,
2013-06-23 01:36:00,65.2,25.4,29.67,East,98,0.0,2.0,22,0.00,,---,0.00,VWS V14.01,2013-06-23 08:36:00,
2013-06-23 01:40:00,65.1,25.3,29.66,East,98,0.0,2.0,22,0.00,,---,0.00,VWS V14.01,2013-06-23 08:40:00,
2013-06-23 01:41:00,64.9,25.2,29.67,East,99,0.0,2.0,22,0.00,,---,0.00,VWS V14.01,2013-06-23 08:41:00,
2013-06-23 01:45:00,64.8,25.1,29.67,East,99,0.0,2.0,22,0.00,,---,0.00,VWS V14.01,2013-06-23 08:45:00,
2013-06-23 01:46:00,64.8,25.1,29.66,East,98,1.0,1.0,22,0.00,,---,0.00,VWS V14.01,2013-06-23 08:46:00,
2013-06-23 01:50:00,64.7,25.0,29.67,East,98,0.0,2.0,22,0.00,,---,0.00,VWS V14.01,2013-06-23 08:50:00,
2013-06-23 01:51:00,64.6,24.9,29.67,East,98,0.0,2.0,22,0.00,,---,0.00,VWS V14.01,2013-06-23 08:51:00,
2013-06-23 01:55:00,64.5,25.9,29.67,East,98,0.0,2.0,23,0.00,,---,0.00,VWS V14.01,2013-06-23 08:55:00,
2013-06-23 01:56:00,64.4,25.8,29.67,East,98,0.0,0.0,23,0.00,,---,0.00,VWS V14.01,2013-06-23 08:56:00,
2013-06-23 02:00:00,64.4,25.8,29.67,East,98,0.0,0.0,23,0.00,,---,0.00,VWS V14.01,2013-06-23 09:00:00,
2013-06-23 02:01:00,64.3,25.7,29.67,East,98,0.0,1.0,23,0.00,,---,0.00,VWS V14.01,2013-06-23 09:01:00,
2013-06-23 02:05:00,64.3,26.8,29.67,East,98,0.0,1.0,24,0.00,,---,0.00,VWS V14.01,2013-06-23 09:05:00,
2013-06-23 02:06:00,64.1,26.6,29.67,East,98,0.0,0.0,24,0.00,,---,0.00,VWS V14.01,2013-06-23 09:06:00,
2013-06-23 02:10:00,64.1,26.6,29.67,East,98,0.0,2.0,24,0.00,,---,0.00,VWS V14.01,2013-06-23 09:10:00,
2013-06-23 02:11:00,64.0,26.5,29.67,East,98,0.0,1.0,24,0.00,,---,0.00,VWS V14.01,2013-06-23 09:11:00,
2013-06-23 02:15:00,63.9,26.4,29.67,East,98,0.0,1.0,24,0.00,,---,0.00,VWS V14.01,2013-06-23 09:15:00,
2013-06-23 02:16:00,63.8,26.3,29.67,East,98,0.0,1.0,24,0.00,,---,0.00,VWS V14.01,2013-06-23 09:16:00,
2013-06-23 02:20:00,63.8,26.3,29.67,East,98,0.0,1.0,24,0.00,,---,0.00,VWS V14.01,2013-06-23 09:20:00,
2013-06-23 02:21:00,63.8,26.3,29.67,East,98,0.0,0.0,24,0.00,,---,0.00,VWS V14.01,2013-06-23 09:21:00,
2013-06-23 02:25:00,63.7,26.3,29.67,East,98,0.0,0.0,24,0.00,,---,0.00,VWS V14.01,2013-06-23 09:25:00,
2013-06-23 02:26:00,63.4,27.0,29.67,East,98,0.0,1.0,25,0.00,,---,0.00,VWS V14.01,2013-06-23 09:26:00,
2013-06-23 02:30:00,63.3,26.9,29.67,East,98,0.0,1.0,25,0.00,,---,0.00,VWS V14.01,2013-06-23 09:30:00,
2013-06-23 02:31:00,63.2,26.8,29.67,East,98,0.0,2.0,25,0.00,,---,0.00,VWS V14.01,2013-06-23 09:31:00,
2013-06-23 02:35:00,63.1,26.7,29.67,East,98,0.0,2.0,25,0.00,,---,0.00,VWS V14.01,2013-06-23 09:35:00,
2013-06-23 02:36:00,63.0,27.6,29.67,East,98,1.0,2.0,26,0.00,,---,0.00,VWS V14.01,2013-06-23 09:36:00,
2013-06-23 02:40:00,63.0,27.6,29.68,East,98,0.0,2.0,26,0.00,,---,0.00,VWS V14.01,2013-06-23 09:40:00,
2013-06-23 02:41:00,63.0,27.6,29.67,East,99,0.0,4.0,26,0.00,,---,0.00,VWS V14.01,2013-06-23 09:41:00,
2013-06-23 02:45:00,63.0,27.6,29.68,East,98,0.0,4.0,26,0.00,,---,0.00,VWS V14.01,2013-06-23 09:45:00,
2013-06-23 02:46:00,63.0,27.6,29.68,East,98,0.0,1.0,26,0.00,,---,0.00,VWS V14.01,2013-06-23 09:46:00,
2013-06-23 02:50:00,63.0,27.6,29.68,East,98,0.0,2.0,26,0.00,,---,0.00,VWS V14.01,2013-06-23 09:50:00,
2013-06-23 02:51:00,62.9,28.4,29.68,East,98,0.0,2.0,27,0.00,,---,0.00,VWS V14.01,2013-06-23 09:51:00,
2013-06-23 02:55:00,62.9,28.4,29.67,East,98,1.0,2.0,27,0.00,,---,0.00,VWS V14.01,2013-06-23 09:55:00,
2013-06-23 02:56:00,62.9,28.4,29.67,East,98,0.0,2.0,27,0.00,,---,0.00,VWS V14.01,2013-06-23 09:56:00,
2013-06-23 03:00:00,62.9,28.4,29.67,East,98,0.0,2.0,27,0.00,,---,0.00,VWS V14.01,2013-06-23 10:00:00,
2013-06-23 03:01:00,62.9,28.4,29.67,East,98,0.0,0.0,27,0.00,,---,0.00,VWS V14.01,2013-06-23 10:01:00,
2013-06-23 03:05:00,62.8,28.4,29.67,East,98,0.0,2.0,27,0.00,,---,0.00,VWS V14.01,2013-06-23 10:05:00,
2013-06-23 03:06:00,62.9,28.4,29.67,East,98,0.0,1.0,27,0.00,,---,0.00,VWS V14.01,2013-06-23 10:06:00,
2013-06-23 03:10:00,63.0,28.5,29.67,East,98,0.0,1.0,27,0.00,,---,0.00,VWS V14.01,2013-06-23 10:10:00,
2013-06-23 03:11:00,63.1,28.6,29.67,East,98,0.0,0.0,27,0.00,,---,0.00,VWS V14.01,2013-06-23 10:11:00,
2013-06-23 03:15:00,63.3,28.8,29.67,East,98,0.0,0.0,27,0.00,,---,0.00,VWS V14.01,2013-06-23 10:15:00,
2013-06-23 03:16:00,63.6,29.0,29.67,East,98,0.0,0.0,27,0.00,,---,0.00,VWS V14.01,2013-06-23 10:16:00,
2013-06-23 03:20:00,63.8,29.2,29.67,East,99,0.0,0.0,27,0.00,,---,0.00,VWS V14.01,2013-06-23 10:20:00,
2013-06-23 03:21:00,64.0,29.4,29.67,East,99,0.0,0.0,27,0.00,,---,0.00,VWS V14.01,2013-06-23 10:21:00,
2013-06-23 03:25:00,64.0,29.4,29.67,East,99,0.0,0.0,27,0.00,,---,0.00,VWS V14.01,2013-06-23 10:25:00,
2013-06-23 03:26:00,64.0,29.4,29.67,East,99,0.0,0.0,27,0.00,,---,0.00,VWS V14.01,2013-06-23 10:26:00,
2013-06-23 03:30:00,64.0,29.4,29.67,East,100,0.0,1.0,27,0.00,,---,0.00,VWS V14.01,2013-06-23 10:30:00,
2013-06-23 03:31:00,64.1,29.5,29.67,East,99,0.0,0.0,27,0.00,,---,0.00,VWS V14.01,2013-06-23 10:31:00,
2013-06-23 03:35:00,64.1,29.5,29.67,East,99,0.0,1.0,27,0.00,,---,0.00,VWS V14.01,2013-06-23 10:35:00,
2013-06-23 03:36:00,64.1,29.5,29.67,East,100,0.0,0.0,27,0.00,,---,0.00,VWS V14.01,2013-06-23 10:36:00,
2013-06-23 03:40:00,64.1,29.5,29.67,East,99,0.0,1.0,27,0.00,,---,0.00,VWS V14.01,2013-06-23 10:40:00,
2013-06-23 03:41:00,64.0,29.4,29.67,East,101,0.0,0.0,27,0.00,,---,0.00,VWS V14.01,2013-06-23 10:41:00,
2013-06-23 03:45:00,64.0,29.4,29.67,ESE,106,0.0,1.0,27,0.00,,---,0.00,VWS V14.01,2013-06-23 10:45:00,
2013-06-23 03:46:00,64.3,29.6,29.67,ESE,108,0.0,1.0,27,0.00,,---,0.00,VWS V14.01,2013-06-23 10:46:00,
2013-06-23 03:50:00,64.5,29.8,29.67,ESE,109,0.0,2.0,27,0.00,,---,0.00,VWS V14.01,2013-06-23 10:50:00,
2013-06-23 03:51:00,64.6,29.9,29.67,ESE,109,0.0,0.0,27,0.00,,---,0.00,VWS V14.01,2013-06-23 10:51:00,
2013-06-23 03:55:00,64.6,29.9,29.67,ESE,108,1.0,3.0,27,0.00,,---,0.00,VWS V14.01,2013-06-23 10:55:00,
2013-06-23 03:56:00,64.5,29.8,29.67,ESE,107,0.0,2.0,27,0.00,,---,0.00,VWS V14.01,2013-06-23 10:56:00,
2013-06-23 04:00:00,64.3,29.6,29.67,ESE,108,0.0,0.0,27,0.00,,---,0.00,VWS V14.01,2013-06-23 11:00:00,
2013-06-23 04:05:00,64.0,30.3,29.67,ESE,108,0.0,0.0,28,0.00,,---,0.00,VWS V14.01,2013-06-23 11:05:00,
2013-06-23 04:10:00,63.7,30.0,29.67,ESE,107,0.0,3.0,28,0.00,,---,0.00,VWS V14.01,2013-06-23 11:10:00,
2013-06-23 04:15:00,63.2,29.6,29.67,ESE,107,0.0,1.0,28,0.00,,---,0.00,VWS V14.01,2013-06-23 11:15:00,
2013-06-23 04:20:00,62.8,30.1,29.67,ESE,109,0.0,1.0,29,0.00,,---,0.00,VWS V14.01,2013-06-23 11:20:00,
2013-06-23 04:25:00,62.7,30.0,29.67,ESE,110,0.0,1.0,29,0.00,,---,0.00,VWS V14.01,2013-06-23 11:25:00,
2013-06-23 04:30:00,62.8,30.9,29.67,ESE,110,0.0,0.0,30,0.00,,---,0.00,VWS V14.01,2013-06-23 11:30:00,
2013-06-23 04:35:00,63.2,30.4,29.67,ESE,111,0.0,0.0,29,0.00,,---,0.00,VWS V14.01,2013-06-23 11:35:00,
2013-06-23 04:40:00,63.8,31.0,29.67,ESE,111,0.0,0.0,29,0.00,,---,0.00,VWS V14.01,2013-06-23 11:40:00,
2013-06-23 04:45:00,64.0,31.1,29.68,ESE,111,0.0,0.0,29,0.00,,---,0.00,VWS V14.01,2013-06-23 11:45:00,
2013-06-23 04:50:00,63.8,31.8,29.68,ESE,111,0.0,1.0,30,0.00,,---,0.00,VWS V14.01,2013-06-23 11:50:00,
2013-06-23 04:55:00,63.9,31.9,29.68,ESE,111,0.0,0.0,30,0.00,,---,0.00,VWS V14.01,2013-06-23 11:55:00,
2013-06-23 05:00:00,64.1,32.1,29.68,ESE,111,0.0,1.0,30,0.00,,---,0.00,VWS V14.01,2013-06-23 12:00:00,
2013-06-23 05:05:00,64.2,31.3,29.68,ESE,113,0.0,0.0,29,0.00,,---,0.00,VWS V14.01,2013-06-23 12:05:00,
2013-06-23 05:10:00,64.6,31.6,29.68,ESE,118,0.0,3.0,29,0.00,,---,0.00,VWS V14.01,2013-06-23 12:10:00,
2013-06-23 05:15:00,64.7,31.7,29.68,ESE,117,0.0,1.0,29,0.00,,---,0.00,VWS V14.01,2013-06-23 12:15:00,
2013-06-23 05:20:00,63.9,31.0,29.68,ESE,115,2.0,4.0,29,0.00,,---,0.00,VWS V14.01,2013-06-23 12:20:00,
2013-06-23 05:25:00,63.6,31.6,29.68,ESE,113,0.0,2.0,30,0.00,,---,0.00,VWS V14.01,2013-06-23 12:25:00,
2013-06-23 05:30:00,63.6,31.6,29.68,ESE,111,0.0,2.0,30,0.00,,---,0.00,VWS V14.01,2013-06-23 12:30:00,
2013-06-23 05:35:00,63.8,31.8,29.68,ESE,112,0.0,2.0,30,0.00,,---,0.00,VWS V14.01,2013-06-23 12:35:00,
2013-06-23 05:40:00,64.0,32.0,29.69,ESE,112,0.0,2.0,30,0.00,,---,0.00,VWS V14.01,2013-06-23 12:40:00,
2013-06-23 05:45:00,64.2,32.2,29.69,ESE,111,0.0,3.0,30,0.00,,---,0.00,VWS V14.01,2013-06-23 12:45:00,
2013-06-23 05:50:00,65.3,32.3,29.69,ESE,107,0.0,2.0,29,0.00,,---,0.00,VWS V14.01,2013-06-23 12:50:00,
2013-06-23 05:55:00,66.3,33.1,29.68,ESE,110,0.0,1.0,29,0.00,,---,0.00,VWS V14.01,2013-06-23 12:55:00,
2013-06-23 06:00:00,67.3,33.1,29.68,ESE,109,0.0,1.0,28,0.00,,---,0.00,VWS V14.01,2013-06-23 13:00:00,
2013-06-23 06:05:00,68.0,33.7,29.68,ESE,109,0.0,1.0,28,0.00,,---,0.00,VWS V14.01,2013-06-23 13:05:00,
2013-06-23 06:10:00,68.8,33.5,29.68,ESE,109,0.0,0.0,27,0.00,,---,0.00,VWS V14.01,2013-06-23 13:10:00,
2013-06-23 06:15:00,69.9,34.4,29.69,ESE,114,0.0,2.0,27,0.00,,---,0.00,VWS V14.01,2013-06-23 13:15:00,
2013-06-23 06:20:00,70.9,34.3,29.69,ESE,122,0.0,3.0,26,0.00,,---,0.00,VWS V14.01,2013-06-23 13:20:00,
2013-06-23 06:25:00,71.8,34.1,29.69,ESE,121,1.0,2.0,25,0.00,,---,0.00,VWS V14.01,2013-06-23 13:25:00,
2013-06-23 06:30:00,72.6,34.8,29.69,SE,126,0.0,3.0,25,0.00,,---,0.00,VWS V14.01,2013-06-23 13:30:00,
2013-06-23 06:35:00,73.2,35.3,29.69,SE,126,2.0,3.0,25,0.00,,---,0.00,VWS V14.01,2013-06-23 13:35:00,
2013-06-23 06:40:00,73.9,34.9,29.69,SE,126,1.0,5.0,24,0.00,,---,0.00,VWS V14.01,2013-06-23 13:40:00,
2013-06-23 06:45:00,74.6,35.5,29.69,SE,129,2.0,5.0,24,0.00,,---,0.00,VWS V14.01,2013-06-23 13:45:00,
2013-06-23 06:50:00,75.1,34.8,29.69,SE,129,1.0,4.0,23,0.00,,---,0.00,VWS V14.01,2013-06-23 13:50:00,
2013-06-23 06:55:00,75.7,34.2,29.69,SE,143,5.0,7.0,22,0.00,,---,0.00,VWS V14.01,2013-06-23 13:55:00,
2013-06-23 07:00:00,75.8,35.4,29.69,SSE,161,6.0,7.0,23,0.00,,---,0.00,VWS V14.01,2013-06-23 14:00:00,
2013-06-23 07:01:00,75.8,35.4,29.69,SSE,158,3.0,6.0,23,0.00,,---,0.00,VWS V14.01,2013-06-23 14:01:00,
2013-06-23 07:05:00,75.9,34.4,29.69,SE,140,6.0,7.0,22,0.00,,---,0.00,VWS V14.01,2013-06-23 14:05:00,
2013-06-23 07:06:00,76.1,34.5,29.70,South,173,0.0,6.0,22,0.00,,---,0.00,VWS V14.01,2013-06-23 14:06:00,
2013-06-23 07:10:00,76.2,34.6,29.70,South,173,5.0,7.0,22,0.00,,---,0.00,VWS V14.01,2013-06-23 14:10:00,
2013-06-23 07:11:00,76.2,34.6,29.70,SSE,166,4.0,7.0,22,0.00,,---,0.00,VWS V14.01,2013-06-23 14:11:00,
2013-06-23 07:15:00,76.2,34.6,29.70,SSE,165,4.0,7.0,22,0.00,,---,0.00,VWS V14.01,2013-06-23 14:15:00,
2013-06-23 07:16:00,76.3,34.7,29.70,SSE,167,1.0,4.0,22,0.00,,---,0.00,VWS V14.01,2013-06-23 14:16:00,
2013-06-23 07:20:00,76.5,34.9,29.70,SSE,149,0.0,9.0,22,0.00,,---,0.00,VWS V14.01,2013-06-23 14:20:00,
2013-06-23 07:21:00,76.9,35.2,29.70,SSE,157,1.0,6.0,22,0.00,,---,0.00,VWS V14.01,2013-06-23 14:21:00,
2013-06-23 07:25:00,77.2,35.5,29.70,SSE,161,2.0,6.0,22,0.00,,---,0.00,VWS V14.01,2013-06-23 14:25:00,
2013-06-23 07:26:00,77.5,34.5,29.70,SE,146,3.0,7.0,21,0.00,,---,0.00,VWS V14.01,2013-06-23 14:26:00,
2013-06-23 07:30:00,77.5,34.5,29.70,SE,142,10.0,11.0,21,0.00,,---,0.00,VWS V14.01,2013-06-23 14:30:00,
2013-06-23 07:31:00,77.5,34.5,29.70,SSE,157,3.0,10.0,21,0.00,,---,0.00,VWS V14.01,2013-06-23 14:31:00,
2013-06-23 07:35:00,77.6,34.6,29.70,SE,136,7.0,10.0,21,0.00,,---,0.00,VWS V14.01,2013-06-23 14:35:00,
2013-06-23 07:36:00,77.8,34.8,29.70,SSE,149,1.0,8.0,21,0.00,,---,0.00,VWS V14.01,2013-06-23 14:36:00,
2013-06-23 07:40:00,78.1,35.0,29.70,SE,142,5.0,9.0,21,0.00,,---,0.00,VWS V14.01,2013-06-23 14:40:00,
2013-06-23 07:41:00,78.3,35.2,29.70,SSE,160,5.0,10.0,21,0.00,,---,0.00,VWS V14.01,2013-06-23 14:41:00,
2013-06-23 07:45:00,78.2,35.1,29.70,SSE,156,6.0,10.0,21,0.00,,---,0.00,VWS V14.01,2013-06-23 14:45:00,
2013-06-23 07:46:00,78.5,35.4,29.70,SSE,163,0.0,6.0,21,0.00,,---,0.00,VWS V14.01,2013-06-23 14:46:00,
2013-06-23 07:50:00,78.7,35.5,29.70,SSE,168,4.0,6.0,21,0.00,,---,0.00,VWS V14.01,2013-06-23 14:50:00,
2013-06-23 07:51:00,79.1,35.8,29.70,SSE,161,6.0,7.0,21,0.00,,---,0.00,VWS V14.01,2013-06-23 14:51:00,
2013-06-23 07:55:00,79.2,37.1,29.70,SSE,153,9.0,9.0,22,0.00,,---,0.00,VWS V14.01,2013-06-23 14:55:00,
2013-06-23 07:56:00,79.6,36.3,29.70,SSE,167,5.0,9.0,21,0.00,,---,0.00,VWS V14.01,2013-06-23 14:56:00,
2013-06-23 08:00:00,79.7,36.3,29.70,South,174,3.0,9.0,21,0.00,,---,0.00,VWS V14.01,2013-06-23 15:00:00,
2013-06-23 08:01:00,79.7,36.3,29.70,SSW,211,4.0,6.0,21,0.00,,---,0.00,VWS V14.01,2013-06-23 15:01:00,
2013-06-23 08:05:00,79.5,36.2,29.70,SSW,207,1.0,6.0,21,0.00,,---,0.00,VWS V14.01,2013-06-23 15:05:00,
2013-06-23 08:06:00,79.5,36.2,29.70,SW,226,6.0,7.0,21,0.00,,---,0.00,VWS V14.01,2013-06-23 15:06:00,
2013-06-23 08:10:00,79.6,36.3,29.70,South,177,3.0,7.0,21,0.00,,---,0.00,VWS V14.01,2013-06-23 15:10:00,
2013-06-23 08:11:00,79.8,36.4,29.70,South,180,3.0,6.0,21,0.00,,---,0.00,VWS V14.01,2013-06-23 15:11:00,
2013-06-23 08:15:00,80.1,36.7,29.70,SSW,202,5.0,6.0,21,0.00,,---,0.00,VWS V14.01,2013-06-23 15:15:00,
2013-06-23 08:16:00,80.1,36.7,29.70,South,173,1.0,7.0,21,0.00,,---,0.00,VWS V14.01,2013-06-23 15:16:00,
2013-06-23 08:20:00,80.1,36.7,29.70,South,179,3.0,7.0,21,0.00,,---,0.00,VWS V14.01,2013-06-23 15:20:00,
2013-06-23 08:21:00,80.3,36.8,29.70,SSW,198,6.0,6.0,21,0.00,,---,0.00,VWS V14.01,2013-06-23 15:21:00,
2013-06-23 08:25:00,80.5,37.0,29.70,SSW,192,3.0,5.0,21,0.00,,---,0.00,VWS V14.01,2013-06-23 15:25:00,
2013-06-23 08:30:00,80.6,37.1,29.70,SSW,202,4.0,7.0,21,0.00,,---,0.00,VWS V14.01,2013-06-23 15:30:00,
2013-06-23 08:31:00,80.5,37.0,29.70,South,180,0.0,6.0,21,0.00,,---,0.00,VWS V14.01,2013-06-23 15:31:00,
2013-06-23 08:35:00,80.7,37.2,29.70,SW,215,6.0,6.0,21,0.00,,---,0.00,VWS V14.01,2013-06-23 15:35:00,
2013-06-23 08:36:00,80.5,37.0,29.70,SW,215,3.0,6.0,21,0.00,,---,0.00,VWS V14.01,2013-06-23 15:36:00,
2013-06-23 08:40:00,80.6,37.1,29.70,SW,214,4.0,6.0,21,0.00,,---,0.00,VWS V14.01,2013-06-23 15:40:00,
2013-06-23 08:41:00,80.8,37.3,29.70,South,179,3.0,4.0,21,0.00,,---,0.00,VWS V14.01,2013-06-23 15:41:00,
2013-06-23 08:45:00,81.1,36.3,29.70,SSW,209,3.0,5.0,20,0.00,,---,0.00,VWS V14.01,2013-06-23 15:45:00,
2013-06-23 08:46:00,81.4,36.5,29.70,SW,233,3.0,7.0,20,0.00,,---,0.00,VWS V14.01,2013-06-23 15:46:00,
2013-06-23 08:50:00,81.5,36.6,29.69,SSW,198,4.0,7.0,20,0.00,,---,0.00,VWS V14.01,2013-06-23 15:50:00,
2013-06-23 08:51:00,81.5,36.6,29.69,SW,217,3.0,4.0,20,0.00,,---,0.00,VWS V14.01,2013-06-23 15:51:00,
2013-06-23 08:55:00,81.4,36.5,29.69,WSW,252,1.0,7.0,20,0.00,,---,0.00,VWS V14.01,2013-06-23 15:55:00,
2013-06-23 08:56:00,81.3,36.4,29.69,SW,230,0.0,9.0,20,0.00,,---,0.00,VWS V14.01,2013-06-23 15:56:00,
2013-06-23 09:00:00,81.4,36.5,29.69,SSW,213,1.0,9.0,20,0.00,,---,0.00,VWS V14.01,2013-06-23 16:00:00,
2013-06-23 09:01:00,81.6,36.7,29.69,SW,221,0.0,4.0,20,0.00,,---,0.00,VWS V14.01,2013-06-23 16:01:00,
2013-06-23 09:05:00,81.9,36.9,29.69,SW,221,0.0,4.0,20,0.00,,---,0.00,VWS V14.01,2013-06-23 16:05:00,
2013-06-23 09:06:00,82.1,35.8,29.69,SW,232,3.0,5.0,19,0.00,,---,0.00,VWS V14.01,2013-06-23 16:06:00,
2013-06-23 09:10:00,82.3,36.0,29.69,SW,219,0.0,5.0,19,0.00,,---,0.00,VWS V14.01,2013-06-23 16:10:00,
2013-06-23 09:11:00,83.0,35.2,29.69,WSW,244,5.0,6.0,18,0.00,,---,0.00,VWS V14.01,2013-06-23 16:11:00,
2013-06-23 09:15:00,83.2,35.3,29.68,WSW,241,4.0,10.0,18,0.00,,---,0.00,VWS V14.01,2013-06-23 16:15:00,
2013-06-23 09:16:00,83.2,35.3,29.68,SW,234,0.0,9.0,18,0.00,,---,0.00,VWS V14.01,2013-06-23 16:16:00,
2013-06-23 09:20:00,83.3,35.4,29.68,SSW,195,5.0,9.0,18,0.00,,---,0.00,VWS V14.01,2013-06-23 16:20:00,
2013-06-23 09:21:00,83.9,34.5,29.69,South,186,7.0,8.0,17,0.00,,---,0.00,VWS V14.01,2013-06-23 16:21:00,
2013-06-23 09:25:00,84.1,34.6,29.69,SSE,154,11.0,11.0,17,0.00,,---,0.00,VWS V14.01,2013-06-23 16:25:00,
2013-06-23 09:26:00,84.3,34.8,29.68,South,177,9.0,11.0,17,0.00,,---,0.00,VWS V14.01,2013-06-23 16:26:00,
2013-06-23 09:30:00,84.4,33.3,29.68,SSW,207,5.0,11.0,16,0.00,,---,0.00,VWS V14.01,2013-06-23 16:30:00,
2013-06-23 09:31:00,84.6,33.5,29.68,SSW,199,11.0,11.0,16,0.00,,---,0.00,VWS V14.01,2013-06-23 16:31:00,
2013-06-23 09:35:00,84.7,33.6,29.68,South,184,8.0,11.0,16,0.00,,---,0.00,VWS V14.01,2013-06-23 16:35:00,
2013-06-23 09:36:00,84.8,35.2,29.68,South,187,3.0,8.0,17,0.00,,---,0.00,VWS V14.01,2013-06-23 16:36:00,
2013-06-23 09:40:00,84.8,33.7,29.68,SSE,157,2.0,8.0,16,0.00,,---,0.00,VWS V14.01,2013-06-23 16:40:00,
2013-06-23 09:41:00,85.0,33.8,29.68,SSW,213,3.0,9.0,16,0.00,,---,0.00,VWS V14.01,2013-06-23 16:41:00,
2013-06-23 09:45:00,85.2,34.0,29.68,SW,217,6.0,9.0,16,0.00,,---,0.00,VWS V14.01,2013-06-23 16:45:00,
2013-06-23 09:46:00,85.4,34.2,29.68,West,263,9.0,9.0,16,0.00,,---,0.00,VWS V14.01,2013-06-23 16:46:00,
2013-06-23 09:50:00,85.3,34.1,29.68,WSW,242,4.0,11.0,16,0.00,,---,0.00,VWS V14.01,2013-06-23 16:50:00,
2013-06-23 09:51:00,85.2,34.0,29.68,SSW,208,4.0,10.0,16,0.00,,---,0.00,VWS V14.01,2013-06-23 16:51:00,
2013-06-23 09:55:00,85.4,34.2,29.68,WSW,243,3.0,10.0,16,0.00,,---,0.00,VWS V14.01,2013-06-23 16:55:00,
2013-06-23 09:56:00,85.4,32.5,29.68,SSW,192,4.0,10.0,15,0.00,,---,0.00,VWS V14.01,2013-06-23 16:56:00,
2013-06-23 09:57:00,85.5,32.6,29.68,SSE,152,4.0,10.0,15,0.00,,---,0.00,VWS V14.01,2013-06-23 16:57:00,
2013-06-23 10:00:00,85.6,32.7,29.67,SSW,198,5.0,10.0,15,0.00,,---,0.00,VWS V14.01,2013-06-23 17:00:00,
2013-06-23 10:03:00,85.9,32.9,29.67,SW,236,8.0,12.0,15,0.00,,---,0.00,VWS V14.01,2013-06-23 17:03:00,
2013-06-23 10:05:00,85.8,34.5,29.67,SW,234,6.0,12.0,16,0.00,,---,0.00,VWS V14.01,2013-06-23 17:05:00,
2013-06-23 10:08:00,85.6,32.7,29.67,SSW,199,6.0,13.0,15,0.00,,---,0.00,VWS V14.01,2013-06-23 17:08:00,
2013-06-23 10:10:00,85.6,32.7,29.67,SSW,209,6.0,13.0,15,0.00,,---,0.00,VWS V14.01,2013-06-23 17:10:00,
2013-06-23 10:13:00,86.5,33.4,29.67,SSW,211,7.0,10.0,15,0.00,,---,0.00,VWS V14.01,2013-06-23 17:13:00,
2013-06-23 10:15:00,86.5,33.4,29.67,SSW,207,5.0,10.0,15,0.00,,---,0.00,VWS V14.01,2013-06-23 17:15:00,
2013-06-23 10:18:00,86.5,33.4,29.67,SW,236,6.0,10.0,15,0.00,,---,0.00,VWS V14.01,2013-06-23 17:18:00,
2013-06-23 10:20:00,86.5,33.4,29.67,SW,228,5.0,10.0,15,0.00,,---,0.00,VWS V14.01,2013-06-23 17:20:00,
2013-06-23 10:23:00,86.8,31.9,29.67,West,276,9.0,11.0,14,0.00,,---,0.00,VWS V14.01,2013-06-23 17:23:00,
2013-06-23 10:25:00,86.7,31.9,29.67,West,276,7.0,11.0,14,0.00,,---,0.00,VWS V14.01,2013-06-23 17:25:00,
2013-06-23 10:28:00,86.6,33.5,29.67,WSW,238,6.0,11.0,15,0.00,,---,0.00,VWS V14.01,2013-06-23 17:28:00,
2013-06-23 10:30:00,86.7,33.6,29.67,WSW,241,5.0,11.0,15,0.00,,---,0.00,VWS V14.01,2013-06-23 17:30:00,
2013-06-23 10:33:00,87.1,33.9,29.67,SW,221,9.0,12.0,15,0.00,,---,0.00,VWS V14.01,2013-06-23 17:33:00,
2013-06-23 10:35:00,87.1,33.9,29.67,SW,224,11.0,12.0,15,0.00,,---,0.00,VWS V14.01,2013-06-23 17:35:00,
2013-06-23 10:38:00,87.1,33.9,29.67,SW,227,9.0,13.0,15,0.00,,---,0.00,VWS V14.01,2013-06-23 17:38:00,
2013-06-23 10:40:00,87.1,33.9,29.67,SW,235,7.0,13.0,15,0.00,,---,0.00,VWS V14.01,2013-06-23 17:40:00,
2013-06-23 10:43:00,88.0,34.6,29.67,South,188,4.0,15.0,15,0.00,,---,0.00,VWS V14.01,2013-06-23 17:43:00,
2013-06-23 10:45:00,88.1,34.7,29.67,South,190,3.0,15.0,15,0.00,,---,0.00,VWS V14.01,2013-06-23 17:45:00,
2013-06-23 10:48:00,88.4,33.2,29.66,WSW,239,1.0,11.0,14,0.00,,---,0.00,VWS V14.01,2013-06-23 17:48:00,
2013-06-23 10:50:00,88.4,33.2,29.66,West,275,8.0,11.0,14,0.00,,---,0.00,VWS V14.01,2013-06-23 17:50:00,
2013-06-23 10:53:00,88.2,33.0,29.66,WSW,248,10.0,11.0,14,0.00,,---,0.00,VWS V14.01,2013-06-23 17:53:00,
2013-06-23 10:55:00,88.2,33.0,29.66,WSW,248,6.0,11.0,14,0.00,,---,0.00,VWS V14.01,2013-06-23 17:55:00,
2013-06-23 10:58:00,89.1,33.8,29.66,SSW,192,6.0,12.0,14,0.00,,---,0.00,VWS V14.01,2013-06-23 17:58:00,
2013-06-23 11:00:00,89.1,33.8,29.66,SSW,193,4.0,12.0,14,0.00,,---,0.00,VWS V14.01,2013-06-23 18:00:00,
2013-06-23 11:03:00,89.6,32.3,29.66,SW,226,6.0,13.0,13,0.00,,---,0.00,VWS V14.01,2013-06-23 18:03:00,
2013-06-23 11:05:00,89.6,32.3,29.66,SW,225,5.0,13.0,13,0.00,,---,0.00,VWS V14.01,2013-06-23 18:05:00,
2013-06-23 11:08:00,88.9,33.6,29.66,SSW,197,5.0,12.0,14,0.00,,---,0.00,VWS V14.01,2013-06-23 18:08:00,
2013-06-23 11:10:00,88.9,33.6,29.66,SSW,203,11.0,12.0,14,0.00,,---,0.00,VWS V14.01,2013-06-23 18:10:00,
2013-06-23 11:13:00,88.9,33.6,29.65,South,190,2.0,11.0,14,0.00,,---,0.00,VWS V14.01,2013-06-23 18:13:00,
2013-06-23 11:15:00,89.0,33.7,29.65,WNW,283,5.0,11.0,14,0.00,,---,0.00,VWS V14.01,2013-06-23 18:15:00,
2013-06-23 11:18:00,89.0,33.7,29.66,WNW,296,5.0,10.0,14,0.00,,---,0.00,VWS V14.01,2013-06-23 18:18:00,
2013-06-23 11:20:00,89.0,33.7,29.66,NW,304,7.0,10.0,14,0.00,,---,0.00,VWS V14.01,2013-06-23 18:20:00,
2013-06-23 11:23:00,89.6,32.3,29.65,WSW,245,14.0,14.0,13,0.00,,---,0.00,VWS V14.01,2013-06-23 18:23:00,
2013-06-23 11:25:00,89.7,32.4,29.65,WSW,249,10.0,17.0,13,0.00,,---,0.00,VWS V14.01,2013-06-23 18:25:00,
2013-06-23 11:28:00,90.5,33.0,29.65,WSW,240,16.0,24.0,13,0.00,,---,0.00,VWS V14.01,2013-06-23 18:28:00,
2013-06-23 11:30:00,90.5,33.0,29.65,SW,227,9.0,24.0,13,0.00,,---,0.00,VWS V14.01,2013-06-23 18:30:00,
2013-06-23 11:33:00,91.4,33.7,29.64,SW,233,15.0,20.0,13,0.00,,---,0.00,VWS V14.01,2013-06-23 18:33:00,
2013-06-23 11:35:00,91.5,33.8,29.64,SW,226,11.0,20.0,13,0.00,,---,0.00,VWS V14.01,2013-06-23 18:35:00,
2013-06-23 11:38:00,91.3,33.6,29.65,SSW,211,12.0,22.0,13,0.00,,---,0.00,VWS V14.01,2013-06-23 18:38:00,
2013-06-23 11:40:00,91.2,33.5,29.65,SSW,205,9.0,22.0,13,0.00,,---,0.00,VWS V14.01,2013-06-23 18:40:00,
2013-06-23 11:43:00,91.1,33.5,29.64,SW,214,7.0,20.0,13,0.00,,---,0.00,VWS V14.01,2013-06-23 18:43:00,
2013-06-23 11:45:00,91.0,33.4,29.64,SSW,213,8.0,20.0,13,0.00,,---,0.00,VWS V14.01,2013-06-23 18:45:00,
2013-06-23 11:48:00,91.9,34.1,29.64,SSW,213,18.0,22.0,13,0.00,,---,0.00,VWS V14.01,2013-06-23 18:48:00,
2013-06-23 11:50:00,91.9,34.1,29.64,SW,236,13.0,22.0,13,0.00,,---,0.00,VWS V14.01,2013-06-23 18:50:00,
2013-06-23 11:53:00,92.0,34.2,29.64,SW,225,16.0,26.0,13,0.00,,---,0.00,VWS V14.01,2013-06-23 18:53:00,
2013-06-23 11:55:00,91.9,34.1,29.64,West,260,20.0,26.0,13,0.00,,---,0.00,VWS V14.01,2013-06-23 18:55:00,
2013-06-23 11:58:00,91.3,33.6,29.64,SW,218,20.0,26.0,13,0.00,,---,0.00,VWS V14.01,2013-06-23 18:58:00,
2013-06-23 12:00:00,91.3,33.6,29.64,SW,219,17.0,26.0,13,0.00,,---,0.00,VWS V14.01,2013-06-23 19:00:00,
2013-06-23 12:03:00,91.3,33.6,29.64,SW,219,11.0,25.0,13,0.00,,---,0.00,VWS V14.01,2013-06-23 19:03:00,
2013-06-23 12:05:00,91.3,33.6,29.64,SW,236,13.0,25.0,13,0.00,,---,0.00,VWS V14.01,2013-06-23 19:05:00,
2013-06-23 12:07:00,91.4,33.7,29.64,WSW,237,17.0,26.0,13,0.00,,---,0.00,VWS V14.01,2013-06-23 19:07:00,
2013-06-23 12:10:00,91.4,33.7,29.64,WSW,244,18.0,26.0,13,0.00,,---,0.00,VWS V14.01,2013-06-23 19:10:00,
2013-06-23 12:12:00,91.7,33.9,29.63,WSW,238,16.0,19.0,13,0.00,,---,0.00,VWS V14.01,2013-06-23 19:12:00,
2013-06-23 12:15:00,91.8,34.0,29.63,WSW,244,15.0,19.0,13,0.00,,---,0.00,VWS V14.01,2013-06-23 19:15:00,
2013-06-23 12:18:00,91.7,33.9,29.62,SW,223,17.0,21.0,13,0.00,,---,0.00,VWS V14.01,2013-06-23 19:18:00,
2013-06-23 12:20:00,91.8,34.0,29.62,SW,227,20.0,28.0,13,0.00,,---,0.00,VWS V14.01,2013-06-23 19:20:00,
2013-06-23 12:23:00,91.9,34.1,29.63,SW,233,10.0,25.0,13,0.00,,---,0.00,VWS V14.01,2013-06-23 19:23:00,
2013-06-23 12:25:00,91.9,34.1,29.63,WSW,250,5.0,25.0,13,0.00,,---,0.00,VWS V14.01,2013-06-23 19:25:00,
2013-06-23 12:28:00,92.1,34.2,29.62,SW,217,18.0,24.0,13,0.00,,---,0.00,VWS V14.01,2013-06-23 19:28:00,
2013-06-23 12:30:00,92.2,34.3,29.62,SW,227,11.0,24.0,13,0.00,,---,0.00,VWS V14.01,2013-06-23 19:30:00,
2013-06-23 12:33:00,92.4,34.5,29.62,SW,232,17.0,19.0,13,0.00,,---,0.00,VWS V14.01,2013-06-23 19:33:00,
2013-06-23 12:35:00,92.5,34.6,29.62,WSW,247,24.0,24.0,13,0.00,,---,0.00,VWS V14.01,2013-06-23 19:35:00,
2013-06-23 12:38:00,92.5,32.6,29.62,SW,217,13.0,24.0,12,0.00,,---,0.00,VWS V14.01,2013-06-23 19:38:00,
2013-06-23 12:40:00,92.4,32.5,29.62,SW,233,10.0,24.0,12,0.00,,---,0.00,VWS V14.01,2013-06-23 19:40:00,
2013-06-23 12:43:00,92.8,32.8,29.62,WSW,244,14.0,21.0,12,0.00,,---,0.00,VWS V14.01,2013-06-23 19:43:00,
2013-06-23 12:45:00,92.8,32.8,29.62,SW,236,23.0,23.0,12,0.00,,---,0.00,VWS V14.01,2013-06-23 19:45:00,
2013-06-23 12:48:00,93.2,33.1,29.62,SW,236,15.0,23.0,12,0.00,,---,0.00,VWS V14.01,2013-06-23 19:48:00,
2013-06-23 12:50:00,93.2,33.1,29.62,SSW,213,17.0,23.0,12,0.00,,---,0.00,VWS V14.01,2013-06-23 19:50:00,
2013-06-23 12:52:00,93.7,33.5,29.61,SW,234,17.0,19.0,12,0.00,,---,0.00,VWS V14.01,2013-06-23 19:52:00,
2013-06-23 12:55:00,93.6,33.4,29.61,WSW,249,10.0,19.0,12,0.00,,---,0.00,VWS V14.01,2013-06-23 19:55:00,
2013-06-23 12:57:00,93.6,33.4,29.61,SW,215,7.0,25.0,12,0.00,,---,0.00,VWS V14.01,2013-06-23 19:57:00,
2013-06-23 13:00:00,93.6,33.4,29.61,SSW,212,20.0,25.0,12,0.00,,---,0.00,VWS V14.01,2013-06-23 20:00:00,
2013-06-23 13:02:00,93.8,33.6,29.61,SSW,211,14.0,22.0,12,0.00,,---,0.00,VWS V14.01,2013-06-23 20:02:00,
2013-06-23 13:05:00,93.7,33.5,29.61,SSW,200,10.0,22.0,12,0.00,,---,0.00,VWS V14.01,2013-06-23 20:05:00,
2013-06-23 13:07:00,94.1,31.6,29.61,SW,226,15.0,23.0,11,0.00,,---,0.00,VWS V14.01,2013-06-23 20:07:00,
2013-06-23 13:10:00,94.0,31.6,29.61,SSE,155,13.0,23.0,11,0.00,,---,0.00,VWS V14.01,2013-06-23 20:10:00,
2013-06-23 13:12:00,93.3,33.2,29.60,SW,220,12.0,19.0,12,0.00,,---,0.00,VWS V14.01,2013-06-23 20:12:00,
2013-06-23 13:15:00,93.3,33.2,29.60,WSW,238,11.0,19.0,12,0.00,,---,0.00,VWS V14.01,2013-06-23 20:15:00,
2013-06-23 13:17:00,94.0,33.7,29.60,SW,223,14.0,26.0,12,0.00,,---,0.00,VWS V14.01,2013-06-23 20:17:00,
2013-06-23 13:20:00,94.0,33.7,29.60,SW,218,20.0,26.0,12,0.00,,---,0.00,VWS V14.01,2013-06-23 20:20:00,
2013-06-23 13:22:00,94.2,33.9,29.60,West,262,14.0,23.0,12,0.00,,---,0.00,VWS V14.01,2013-06-23 20:22:00,
2013-06-23 13:25:00,94.2,33.9,29.60,SW,225,14.0,23.0,12,0.00,,---,0.00,VWS V14.01,2013-06-23 20:25:00,
2013-06-23 13:27:00,93.7,33.5,29.60,WSW,254,13.0,23.0,12,0.00,,---,0.00,VWS V14.01,2013-06-23 20:27:00,
2013-06-23 13:30:00,93.8,33.6,29.60,WSW,240,11.0,23.0,12,0.00,,---,0.00,VWS V14.01,2013-06-23 20:30:00,
2013-06-23 13:32:00,95.1,32.4,29.60,SW,236,17.0,21.0,11,0.00,,---,0.00,VWS V14.01,2013-06-23 20:32:00,
2013-06-23 13:35:00,95.0,32.3,29.60,WSW,240,18.0,21.0,11,0.00,,---,0.00,VWS V14.01,2013-06-23 20:35:00,
2013-06-23 13:37:00,94.2,33.9,29.60,SW,229,14.0,21.0,12,0.00,,---,0.00,VWS V14.01,2013-06-23 20:37:00,
2013-06-23 13:40:00,94.3,34.0,29.60,SW,219,10.0,21.0,12,0.00,,---,0.00,VWS V14.01,2013-06-23 20:40:00,
2013-06-23 13:42:00,94.7,34.3,29.60,WSW,242,22.0,24.0,12,0.00,,---,0.00,VWS V14.01,2013-06-23 20:42:00,
2013-06-23 13:45:00,94.7,34.3,29.60,SW,236,15.0,24.0,12,0.00,,---,0.00,VWS V14.01,2013-06-23 20:45:00,
2013-06-23 13:47:00,94.6,34.2,29.60,SW,229,11.0,23.0,12,0.00,,---,0.00,VWS V14.01,2013-06-23 20:47:00,
2013-06-23 13:50:00,94.7,34.3,29.60,WSW,238,14.0,23.0,12,0.00,,---,0.00,VWS V14.01,2013-06-23 20:50:00,
2013-06-23 13:52:00,94.0,33.7,29.60,WSW,255,22.0,28.0,12,0.00,,---,0.00,VWS V14.01,2013-06-23 20:52:00,
2013-06-23 13:55:00,93.9,33.6,29.60,WSW,240,19.0,28.0,12,0.00,,---,0.00,VWS V14.01,2013-06-23 20:55:00,
2013-06-23 13:57:00,93.9,33.6,29.60,SW,221,16.0,22.0,12,0.00,,---,0.00,VWS V14.01,2013-06-23 20:57:00,
2013-06-23 14:00:00,94.0,33.7,29.60,SW,232,17.0,22.0,12,0.00,,---,0.00,VWS V14.01,2013-06-23 21:00:00,
2013-06-23 14:02:00,93.8,33.6,29.60,SSW,192,11.0,25.0,12,0.00,,---,0.00,VWS V14.01,2013-06-23 21:02:00,
2013-06-23 14:05:00,93.8,33.6,29.60,SW,223,11.0,25.0,12,0.00,,---,0.00,VWS V14.01,2013-06-23 21:05:00,
2013-06-23 14:07:00,94.0,33.7,29.60,SW,234,10.0,18.0,12,0.00,,---,0.00,VWS V14.01,2013-06-23 21:07:00,
2013-06-23 14:10:00,94.0,33.7,29.60,WSW,244,15.0,19.0,12,0.00,,---,0.00,VWS V14.01,2013-06-23 21:10:00,
2013-06-23 14:12:00,94.2,33.9,29.59,WSW,238,18.0,22.0,12,0.00,,---,0.00,VWS V14.01,2013-06-23 21:12:00,
2013-06-23 14:15:00,94.2,33.9,29.59,SSW,208,14.0,22.0,12,0.00,,---,0.00,VWS V14.01,2013-06-23 21:15:00,
2013-06-23 14:17:00,94.1,33.8,29.59,WSW,255,12.0,22.0,12,0.00,,---,0.00,VWS V14.01,2013-06-23 21:17:00,
2013-06-23 14:20:00,94.1,33.8,29.59,West,269,17.0,22.0,12,0.00,,---,0.00,VWS V14.01,2013-06-23 21:20:00,
2013-06-23 14:22:00,94.2,33.9,29.59,WSW,248,19.0,24.0,12,0.00,,---,0.00,VWS V14.01,2013-06-23 21:22:00,
2013-06-23 14:25:00,94.1,33.8,29.59,SW,223,20.0,24.0,12,0.00,,---,0.00,VWS V14.01,2013-06-23 21:25:00,
2013-06-23 14:27:00,94.5,34.1,29.60,WSW,238,15.0,24.0,12,0.00,,---,0.00,VWS V14.01,2013-06-23 21:27:00,
2013-06-23 14:30:00,94.5,34.1,29.60,WSW,245,19.0,24.0,12,0.00,,---,0.00,VWS V14.01,2013-06-23 21:30:00,
2013-06-23 14:32:00,94.3,31.8,29.59,WSW,242,12.0,22.0,11,0.00,,---,0.00,VWS V14.01,2013-06-23 21:32:00,
2013-06-23 14:35:00,94.3,31.8,29.59,West,265,12.0,22.0,11,0.00,,---,0.00,VWS V14.01,2013-06-23 21:35:00,
2013-06-23 14:37:00,94.1,33.8,29.59,WSW,248,20.0,21.0,12,0.00,,---,0.00,VWS V14.01,2013-06-23 21:37:00,
2013-06-23 14:40:00,94.1,33.8,29.59,West,262,18.0,22.0,12,0.00,,---,0.00,VWS V14.01,2013-06-23 21:40:00,
2013-06-23 14:42:00,94.4,34.0,29.59,WSW,248,16.0,19.0,12,0.00,,---,0.00,VWS V14.01,2013-06-23 21:42:00,
2013-06-23 14:45:00,94.4,34.0,29.59,SW,232,16.0,19.0,12,0.00,,---,0.00,VWS V14.01,2013-06-23 21:45:00,
2013-06-23 14:47:00,94.2,33.9,29.58,SW,229,15.0,25.0,12,0.00,,---,0.00,VWS V14.01,2013-06-23 21:47:00,
2013-06-23 14:50:00,94.3,34.0,29.58,SSW,198,15.0,25.0,12,0.00,,---,0.00,VWS V14.01,2013-06-23 21:50:00,
2013-06-23 14:52:00,94.5,31.9,29.58,SSW,196,16.0,24.0,11,0.00,,---,0.00,VWS V14.01,2013-06-23 21:52:00,
2013-06-23 14:55:00,94.4,31.9,29.58,SW,224,16.0,24.0,11,0.00,,---,0.00,VWS V14.01,2013-06-23 21:55:00,
2013-06-23 14:57:00,94.4,34.0,29.59,SW,222,5.0,21.0,12,0.00,,---,0.00,VWS V14.01,2013-06-23 21:57:00,
2013-06-23 15:00:00,94.4,34.0,29.59,WSW,237,7.0,21.0,12,0.00,,---,0.00,VWS V14.01,2013-06-23 22:00:00,
2013-06-23 15:02:00,94.4,34.0,29.58,West,260,15.0,20.0,12,0.00,,---,0.00,VWS V14.01,2013-06-23 22:02:00,
2013-06-23 15:05:00,94.4,34.0,29.58,SW,233,16.0,20.0,12,0.00,,---,0.00,VWS V14.01,2013-06-23 22:05:00,
2013-06-23 15:07:00,94.3,34.0,29.57,SW,225,10.0,18.0,12,0.00,,---,0.00,VWS V14.01,2013-06-23 22:07:00,
2013-06-23 15:10:00,94.3,34.0,29.57,WSW,244,15.0,18.0,12,0.00,,---,0.00,VWS V14.01,2013-06-23 22:10:00,
2013-06-23 15:12:00,94.6,34.2,29.57,SSW,209,9.0,25.0,12,0.00,,---,0.00,VWS V14.01,2013-06-23 22:12:00,
2013-06-23 15:15:00,94.7,34.3,29.57,SW,234,14.0,25.0,12,0.00,,---,0.00,VWS V14.01,2013-06-23 22:15:00,
2013-06-23 15:17:00,95.0,34.5,29.57,SW,230,9.0,20.0,12,0.00,,---,0.00,VWS V14.01,2013-06-23 22:17:00,
2013-06-23 15:20:00,95.1,34.6,29.57,WSW,254,15.0,20.0,12,0.00,,---,0.00,VWS V14.01,2013-06-23 22:20:00,
2013-06-23 15:22:00,95.6,35.0,29.57,WSW,242,9.0,19.0,12,0.00,,---,0.00,VWS V14.01,2013-06-23 22:22:00,
2013-06-23 15:25:00,95.6,35.0,29.57,SSW,209,11.0,19.0,12,0.00,,---,0.00,VWS V14.01,2013-06-23 22:25:00,
2013-06-23 15:27:00,94.8,34.3,29.57,SW,217,18.0,22.0,12,0.00,,---,0.00,VWS V14.01,2013-06-23 22:27:00,
2013-06-23 15:30:00,94.7,34.3,29.57,SSW,213,14.0,22.0,12,0.00,,---,0.00,VWS V14.01,2013-06-23 22:30:00,
2013-06-23 15:32:00,94.9,34.4,29.57,WSW,244,17.0,20.0,12,0.00,,---,0.00,VWS V14.01,2013-06-23 22:32:00,
2013-06-23 15:35:00,94.9,34.4,29.57,WSW,240,19.0,20.0,12,0.00,,---,0.00,VWS V14.01,2013-06-23 22:35:00,
2013-06-23 15:37:00,94.5,34.1,29.57,WSW,252,10.0,20.0,12,0.00,,---,0.00,VWS V14.01,2013-06-23 22:37:00,
2013-06-23 15:40:00,94.4,34.0,29.57,West,261,5.0,20.0,12,0.00,,---,0.00,VWS V14.01,2013-06-23 22:40:00,
2013-06-23 15:42:00,94.3,34.0,29.57,South,183,6.0,15.0,12,0.00,,---,0.00,VWS V14.01,2013-06-23 22:42:00,
2013-06-23 15:45:00,94.4,34.0,29.57,SSW,202,9.0,15.0,12,0.00,,---,0.00,VWS V14.01,2013-06-23 22:45:00,
2013-06-23 15:47:00,95.4,34.8,29.56,SW,230,18.0,21.0,12,0.00,,---,0.00,VWS V14.01,2013-06-23 22:47:00,
2013-06-23 15:50:00,95.4,34.8,29.56,WSW,244,18.0,21.0,12,0.00,,---,0.00,VWS V14.01,2013-06-23 22:50:00,
2013-06-23 15:52:00,94.5,34.1,29.57,SW,236,19.0,21.0,12,0.00,,---,0.00,VWS V14.01,2013-06-23 22:52:00,
2013-06-23 15:55:00,94.4,34.0,29.57,WSW,243,14.0,21.0,12,0.00,,---,0.00,VWS V14.01,2013-06-23 22:55:00,
2013-06-23 15:57:00,93.5,33.3,29.57,SW,232,19.0,19.0,12,0.00,,---,0.00,VWS V14.01,2013-06-23 22:57:00,
2013-06-23 16:00:00,93.4,33.3,29.57,WSW,239,6.0,19.0,12,0.00,,---,0.00,VWS V14.01,2013-06-23 23:00:00,
2013-06-23 16:02:00,93.1,35.0,29.57,SW,228,10.0,19.0,13,0.00,,---,0.00,VWS V14.01,2013-06-23 23:02:00,
2013-06-23 16:05:00,93.1,35.0,29.57,WSW,239,20.0,20.0,13,0.00,,---,0.00,VWS V14.01,2013-06-23 23:05:00,
2013-06-23 16:07:00,92.3,34.4,29.56,WSW,257,10.0,21.0,13,0.00,,---,0.00,VWS V14.01,2013-06-23 23:07:00,
2013-06-23 16:10:00,92.3,34.4,29.56,SW,217,7.0,21.0,13,0.00,,---,0.00,VWS V14.01,2013-06-23 23:10:00,
2013-06-23 16:12:00,92.1,34.2,29.57,WSW,238,13.0,17.0,13,0.00,,---,0.00,VWS V14.01,2013-06-23 23:12:00,
2013-06-23 16:15:00,92.2,34.3,29.57,WSW,238,9.0,17.0,13,0.00,,---,0.00,VWS V14.01,2013-06-23 23:15:00,
2013-06-23 16:17:00,92.8,34.8,29.56,WSW,253,10.0,20.0,13,0.00,,---,0.00,VWS V14.01,2013-06-23 23:17:00,
2013-06-23 16:20:00,92.7,34.7,29.56,WSW,240,10.0,20.0,13,0.00,,---,0.00,VWS V14.01,2013-06-23 23:20:00,
2013-06-23 16:22:00,92.2,34.3,29.57,WSW,238,10.0,18.0,13,0.00,,---,0.00,VWS V14.01,2013-06-23 23:22:00,
2013-06-23 16:25:00,92.1,34.2,29.57,WSW,240,14.0,18.0,13,0.00,,---,0.00,VWS V14.01,2013-06-23 23:25:00,
2013-06-23 16:27:00,91.7,33.9,29.56,WSW,238,13.0,20.0,13,0.00,,---,0.00,VWS V14.01,2013-06-23 23:27:00,
2013-06-23 16:30:00,91.7,33.9,29.56,WSW,243,15.0,20.0,13,0.00,,---,0.00,VWS V14.01,2013-06-23 23:30:00,
2013-06-23 16:32:00,91.4,33.7,29.56,WSW,250,8.0,17.0,13,0.00,,---,0.00,VWS V14.01,2013-06-23 23:32:00,
2013-06-23 16:35:00,91.4,33.7,29.56,SW,225,7.0,17.0,13,0.00,,---,0.00,VWS V14.01,2013-06-23 23:35:00,
2013-06-23 16:37:00,91.7,35.8,29.56,SW,236,13.0,21.0,14,0.00,,---,0.00,VWS V14.01,2013-06-23 23:37:00,
2013-06-23 16:40:00,91.7,35.8,29.56,SW,232,14.0,21.0,14,0.00,,---,0.00,VWS V14.01,2013-06-23 23:40:00,
2013-06-23 16:42:00,91.8,34.0,29.56,SW,229,10.0,18.0,13,0.00,,---,0.00,VWS V14.01,2013-06-23 23:42:00,
2013-06-23 16:45:00,91.8,34.0,29.56,WSW,244,13.0,18.0,13,0.00,,---,0.00,VWS V14.01,2013-06-23 23:45:00,
2013-06-23 16:47:00,92.0,34.2,29.57,SSW,213,12.0,24.0,13,0.00,,---,0.00,VWS V14.01,2013-06-23 23:47:00,
2013-06-23 16:50:00,92.0,34.2,29.57,WSW,242,14.0,24.0,13,0.00,,---,0.00,VWS V14.01,2013-06-23 23:50:00,
2013-06-23 16:52:00,91.9,34.1,29.56,SSW,206,18.0,18.0,13,0.00,,---,0.00,VWS V14.01,2013-06-23 23:52:00,
2013-06-23 16:55:00,92.0,34.2,29.56,SW,218,7.0,18.0,13,0.00,,---,0.00,VWS V14.01,2013-06-23 23:55:00,
2013-06-23 16:57:00,92.4,34.5,29.56,SW,232,15.0,18.0,13,0.00,,---,0.00,VWS V14.01,2013-06-23 23:57:00,
2013-06-23 17:00:00,92.5,34.6,29.56,SW,226,6.0,18.0,13,0.00,,---,0.00,VWS V14.01,2013-06-24 00:00:00,
2013-06-23 17:02:00,92.7,34.7,29.56,WSW,248,18.0,21.0,13,0.00,,---,0.00,VWS V14.01,2013-06-24 00:02:00,
2013-06-23 17:05:00,92.7,34.7,29.56,SW,227,12.0,21.0,13,0.00,,---,0.00,VWS V14.01,2013-06-24 00:05:00,
2013-06-23 17:07:00,92.8,34.8,29.56,SW,232,14.0,17.0,13,0.00,,---,0.00,VWS V14.01,2013-06-24 00:07:00,
2013-06-23 17:10:00,92.8,34.8,29.56,SW,232,5.0,17.0,13,0.00,,---,0.00,VWS V14.01,2013-06-24 00:10:00,
2013-06-23 17:12:00,92.9,34.9,29.56,WSW,240,12.0,23.0,13,0.00,,---,0.00,VWS V14.01,2013-06-24 00:12:00,
2013-06-23 17:15:00,93.0,35.0,29.56,SW,229,11.0,23.0,13,0.00,,---,0.00,VWS V14.01,2013-06-24 00:15:00,
2013-06-23 17:17:00,92.5,34.6,29.56,SSW,211,13.0,18.0,13,0.00,,---,0.00,VWS V14.01,2013-06-24 00:17:00,
2013-06-23 17:20:00,92.4,34.5,29.56,SW,217,16.0,18.0,13,0.00,,---,0.00,VWS V14.01,2013-06-24 00:20:00,
2013-06-23 17:22:00,92.1,34.2,29.56,SW,226,9.0,16.0,13,0.00,,---,0.00,VWS V14.01,2013-06-24 00:22:00,
2013-06-23 17:25:00,92.1,34.2,29.56,SW,232,11.0,16.0,13,0.00,,---,0.00,VWS V14.01,2013-06-24 00:25:00,
2013-06-23 17:27:00,92.2,34.3,29.56,SSW,210,11.0,15.0,13,0.00,,---,0.00,VWS V14.01,2013-06-24 00:27:00,
2013-06-23 17:30:00,92.2,34.3,29.56,SW,230,15.0,15.0,13,0.00,,---,0.00,VWS V14.01,2013-06-24 00:30:00,
2013-06-23 17:32:00,92.2,34.3,29.56,SW,232,10.0,15.0,13,0.00,,---,0.00,VWS V14.01,2013-06-24 00:32:00,
2013-06-23 17:35:00,92.2,34.3,29.56,SSW,203,6.0,15.0,13,0.00,,---,0.00,VWS V14.01,2013-06-24 00:35:00,
2013-06-23 17:37:00,92.0,36.0,29.56,South,190,9.0,16.0,14,0.00,,---,0.00,VWS V14.01,2013-06-24 00:37:00,
2013-06-23 17:40:00,91.9,36.0,29.56,SSW,207,10.0,16.0,14,0.00,,---,0.00,VWS V14.01,2013-06-24 00:40:00,
2013-06-23 17:42:00,92.2,34.3,29.56,WSW,250,6.0,14.0,13,0.00,,---,0.00,VWS V14.01,2013-06-24 00:42:00,
2013-06-23 17:45:00,92.2,36.2,29.56,SW,229,5.0,14.0,14,0.00,,---,0.00,VWS V14.01,2013-06-24 00:45:00,
2013-06-23 17:47:00,91.8,35.9,29.56,West,259,10.0,16.0,14,0.00,,---,0.00,VWS V14.01,2013-06-24 00:47:00,
2013-06-23 17:50:00,91.8,35.9,29.56,WSW,252,11.0,16.0,14,0.00,,---,0.00,VWS V14.01,2013-06-24 00:50:00,
2013-06-23 17:52:00,91.7,35.8,29.56,SW,218,8.0,11.0,14,0.00,,---,0.00,VWS V14.01,2013-06-24 00:52:00,
2013-06-23 17:55:00,91.7,35.8,29.56,SW,215,5.0,11.0,14,0.00,,---,0.00,VWS V14.01,2013-06-24 00:55:00,
2013-06-23 17:57:00,91.6,35.7,29.55,WSW,239,6.0,12.0,14,0.00,,---,0.00,VWS V14.01,2013-06-24 00:57:00,
2013-06-23 18:00:00,91.6,35.7,29.55,West,263,13.0,13.0,14,0.00,,---,0.00,VWS V14.01,2013-06-24 01:00:00,
2013-06-23 18:02:00,91.7,35.8,29.56,SSW,205,7.0,15.0,14,0.00,,---,0.00,VWS V14.01,2013-06-24 01:02:00,
2013-06-23 18:05:00,91.7,35.8,29.56,SSW,193,7.0,15.0,14,0.00,,---,0.00,VWS V14.01,2013-06-24 01:05:00,
2013-06-23 18:07:00,91.8,35.9,29.56,SW,214,5.0,19.0,14,0.00,,---,0.00,VWS V14.01,2013-06-24 01:07:00,
2013-06-23 18:10:00,91.8,35.9,29.56,SSW,195,10.0,19.0,14,0.00,,---,0.00,VWS V14.01,2013-06-24 01:10:00,
2013-06-23 18:12:00,91.7,35.8,29.56,WSW,245,12.0,18.0,14,0.00,,---,0.00,VWS V14.01,2013-06-24 01:12:00,
2013-06-23 18:15:00,91.7,35.8,29.56,South,190,8.0,18.0,14,0.00,,---,0.00,VWS V14.01,2013-06-24 01:15:00,
2013-06-23 18:17:00,91.6,35.7,29.56,South,184,7.0,15.0,14,0.00,,---,0.00,VWS V14.01,2013-06-24 01:17:00,
2013-06-23 18:20:00,91.5,35.6,29.56,SW,219,6.0,15.0,14,0.00,,---,0.00,VWS V14.01,2013-06-24 01:20:00,
2013-06-23 18:22:00,91.4,35.6,29.56,South,174,9.0,15.0,14,0.00,,---,0.00,VWS V14.01,2013-06-24 01:22:00,
2013-06-23 18:25:00,91.3,35.5,29.56,SSW,198,5.0,15.0,14,0.00,,---,0.00,VWS V14.01,2013-06-24 01:25:00,
2013-06-23 18:27:00,91.1,35.3,29.56,SW,229,13.0,14.0,14,0.00,,---,0.00,VWS V14.01,2013-06-24 01:27:00,
2013-06-23 18:30:00,91.1,35.3,29.56,SW,225,10.0,14.0,14,0.00,,---,0.00,VWS V14.01,2013-06-24 01:30:00,
2013-06-23 18:32:00,91.0,35.2,29.56,SW,217,11.0,14.0,14,0.00,,---,0.00,VWS V14.01,2013-06-24 01:32:00,
2013-06-23 18:35:00,91.0,35.2,29.56,SW,227,4.0,14.0,14,0.00,,---,0.00,VWS V14.01,2013-06-24 01:35:00,
2013-06-23 18:37:00,90.7,33.2,29.56,WSW,239,16.0,20.0,13,0.00,,---,0.00,VWS V14.01,2013-06-24 01:37:00,
2013-06-23 18:40:00,90.6,33.1,29.56,SW,231,11.0,20.0,13,0.00,,---,0.00,VWS V14.01,2013-06-24 01:40:00,
2013-06-23 18:42:00,89.9,32.5,29.56,SW,232,12.0,20.0,13,0.00,,---,0.00,VWS V14.01,2013-06-24 01:42:00,
2013-06-23 18:45:00,89.8,32.5,29.56,SW,215,12.0,20.0,13,0.00,,---,0.00,VWS V14.01,2013-06-24 01:45:00,
2013-06-23 18:47:00,89.3,32.1,29.56,SSW,213,9.0,18.0,13,0.00,,---,0.00,VWS V14.01,2013-06-24 01:47:00,
2013-06-23 18:50:00,89.3,32.1,29.56,SW,226,12.0,18.0,13,0.00,,---,0.00,VWS V14.01,2013-06-24 01:50:00,
2013-06-23 18:52:00,89.0,33.7,29.57,SW,224,8.0,18.0,14,0.00,,---,0.00,VWS V14.01,2013-06-24 01:52:00,
2013-06-23 18:55:00,88.9,33.6,29.57,SW,232,11.0,18.0,14,0.00,,---,0.00,VWS V14.01,2013-06-24 01:55:00,
2013-06-23 18:57:00,88.7,33.4,29.56,SW,230,9.0,15.0,14,0.00,,---,0.00,VWS V14.01,2013-06-24 01:57:00,
2013-06-23 19:00:00,88.7,33.4,29.56,SW,228,12.0,15.0,14,0.00,,---,0.00,VWS V14.01,2013-06-24 02:00:00,
2013-06-23 19:02:00,88.5,33.3,29.56,SW,236,6.0,13.0,14,0.00,,---,0.00,VWS V14.01,2013-06-24 02:02:00,
2013-06-23 19:05:00,88.4,33.2,29.56,SW,223,10.0,13.0,14,0.00,,---,0.00,VWS V14.01,2013-06-24 02:05:00,
2013-06-23 19:07:00,88.1,33.0,29.56,SW,214,4.0,13.0,14,0.00,,---,0.00,VWS V14.01,2013-06-24 02:07:00,
2013-06-23 19:10:00,88.1,33.0,29.56,SW,218,1.0,13.0,14,0.00,,---,0.00,VWS V14.01,2013-06-24 02:10:00,
2013-06-23 19:12:00,87.8,32.7,29.56,SW,234,7.0,10.0,14,0.00,,---,0.00,VWS V14.01,2013-06-24 02:12:00,
2013-06-23 19:15:00,87.7,32.7,29.56,WSW,237,6.0,10.0,14,0.00,,---,0.00,VWS V14.01,2013-06-24 02:15:00,
2013-06-23 19:17:00,87.5,32.5,29.57,SW,222,3.0,10.0,14,0.00,,---,0.00,VWS V14.01,2013-06-24 02:17:00,
2013-06-23 19:20:00,87.5,32.5,29.57,SSW,211,5.0,10.0,14,0.00,,---,0.00,VWS V14.01,2013-06-24 02:20:00,
2013-06-23 19:22:00,87.3,34.0,29.56,SSW,206,3.0,13.0,15,0.00,,---,0.00,VWS V14.01,2013-06-24 02:22:00,
2013-06-23 19:25:00,87.2,34.0,29.56,SSW,198,2.0,13.0,15,0.00,,---,0.00,VWS V14.01,2013-06-24 02:25:00,
2013-06-23 19:27:00,86.9,33.7,29.57,SSW,200,9.0,9.0,15,0.00,,---,0.00,VWS V14.01,2013-06-24 02:27:00,
2013-06-23 19:30:00,86.8,33.7,29.57,SSW,206,3.0,10.0,15,0.00,,---,0.00,VWS V14.01,2013-06-24 02:30:00,
2013-06-23 19:32:00,86.5,33.4,29.57,SW,214,6.0,10.0,15,0.00,,---,0.00,VWS V14.01,2013-06-24 02:32:00,
2013-06-23 19:35:00,86.4,33.3,29.57,SSW,207,2.0,10.0,15,0.00,,---,0.00,VWS V14.01,2013-06-24 02:35:00,
2013-06-23 19:37:00,86.0,34.6,29.57,SW,216,1.0,8.0,16,0.00,,---,0.00,VWS V14.01,2013-06-24 02:37:00,
2013-06-23 19:40:00,86.0,34.6,29.57,SW,217,3.0,8.0,16,0.00,,---,0.00,VWS V14.01,2013-06-24 02:40:00,
2013-06-23 19:42:00,85.6,34.3,29.57,SW,215,7.0,7.0,16,0.00,,---,0.00,VWS V14.01,2013-06-24 02:42:00,
2013-06-23 19:45:00,85.5,34.2,29.57,SW,217,6.0,8.0,16,0.00,,---,0.00,VWS V14.01,2013-06-24 02:45:00,
2013-06-23 19:47:00,85.3,34.1,29.57,SW,229,3.0,7.0,16,0.00,,---,0.00,VWS V14.01,2013-06-24 02:47:00,
2013-06-23 19:50:00,85.2,34.0,29.57,SW,228,3.0,7.0,16,0.00,,---,0.00,VWS V14.01,2013-06-24 02:50:00,
2013-06-23 19:52:00,84.9,33.8,29.57,SW,222,4.0,6.0,16,0.00,,---,0.00,VWS V14.01,2013-06-24 02:52:00,
2013-06-23 19:55:00,84.9,33.8,29.57,SW,221,3.0,6.0,16,0.00,,---,0.00,VWS V14.01,2013-06-24 02:55:00,
2013-06-23 19:57:00,84.6,33.5,29.57,SW,219,5.0,6.0,16,0.00,,---,0.00,VWS V14.01,2013-06-24 02:57:00,
2013-06-23 20:00:00,84.5,33.4,29.57,SW,221,4.0,6.0,16,0.00,,---,0.00,VWS V14.01,2013-06-24 03:00:00,
2013-06-23 20:02:00,84.3,33.3,29.58,SW,222,3.0,8.0,16,0.00,,---,0.00,VWS V14.01,2013-06-24 03:02:00,
2013-06-23 20:05:00,84.3,33.3,29.58,SW,219,5.0,8.0,16,0.00,,---,0.00,VWS V14.01,2013-06-24 03:05:00,
2013-06-23 20:07:00,84.0,34.5,29.58,SSW,200,2.0,6.0,17,0.00,,---,0.00,VWS V14.01,2013-06-24 03:07:00,
2013-06-23 20:10:00,83.9,34.5,29.58,SSW,200,0.0,6.0,17,0.00,,---,0.00,VWS V14.01,2013-06-24 03:10:00,
2013-06-23 20:12:00,83.4,34.1,29.58,SSW,200,2.0,3.0,17,0.00,,---,0.00,VWS V14.01,2013-06-24 03:12:00,
2013-06-23 20:15:00,83.3,34.0,29.58,SSW,200,1.0,3.0,17,0.00,,---,0.00,VWS V14.01,2013-06-24 03:15:00,
2013-06-23 20:17:00,82.9,33.7,29.58,SSW,200,0.0,3.0,17,0.00,,---,0.00,VWS V14.01,2013-06-24 03:17:00,
2013-06-23 20:20:00,82.9,33.7,29.58,SSW,200,0.0,3.0,17,0.00,,---,0.00,VWS V14.01,2013-06-24 03:20:00,
2013-06-23 20:22:00,82.4,33.2,29.58,SSW,200,0.0,0.0,17,0.00,,---,0.00,VWS V14.01,2013-06-24 03:22:00,
2013-06-23 20:25:00,82.3,33.2,29.58,SSW,200,0.0,0.0,17,0.00,,---,0.00,VWS V14.01,2013-06-24 03:25:00,
2013-06-23 20:27:00,81.8,32.8,29.58,SSW,200,0.0,1.0,17,0.00,,---,0.00,VWS V14.01,2013-06-24 03:27:00,
2013-06-23 20:30:00,81.8,32.8,29.58,SSW,200,0.0,1.0,17,0.00,,---,0.00,VWS V14.01,2013-06-24 03:30:00,
2013-06-23 20:32:00,81.4,33.9,29.58,SSW,200,0.0,0.0,18,0.00,,---,0.00,VWS V14.01,2013-06-24 03:32:00,
2013-06-23 20:35:00,81.3,33.8,29.58,SSW,200,0.0,0.0,18,0.00,,---,0.00,VWS V14.01,2013-06-24 03:35:00,
2013-06-23 20:37:00,80.9,33.5,29.58,SSW,206,2.0,6.0,18,0.00,,---,0.00,VWS V14.01,2013-06-24 03:37:00,
2013-06-23 20:40:00,80.9,33.5,29.58,SSW,206,3.0,6.0,18,0.00,,---,0.00,VWS V14.01,2013-06-24 03:40:00,
2013-06-23 20:42:00,80.9,33.5,29.59,SSW,207,2.0,4.0,18,0.00,,---,0.00,VWS V14.01,2013-06-24 03:42:00,
2013-06-23 20:45:00,80.9,33.5,29.59,SSW,207,4.0,5.0,18,0.00,,---,0.00,VWS V14.01,2013-06-24 03:45:00,
2013-06-23 20:47:00,81.0,33.5,29.59,SSW,213,4.0,5.0,18,0.00,,---,0.00,VWS V14.01,2013-06-24 03:47:00,
2013-06-23 20:50:00,81.1,33.6,29.59,SSW,213,3.0,5.0,18,0.00,,---,0.00,VWS V14.01,2013-06-24 03:50:00,
2013-06-23 20:52:00,81.2,33.7,29.59,SSW,209,2.0,5.0,18,0.00,,---,0.00,VWS V14.01,2013-06-24 03:52:00,
2013-06-23 20:55:00,81.2,33.7,29.59,SSW,209,4.0,5.0,18,0.00,,---,0.00,VWS V14.01,2013-06-24 03:55:00,
2013-06-23 20:57:00,81.2,33.7,29.59,SW,214,0.0,6.0,18,0.00,,---,0.00,VWS V14.01,2013-06-24 03:57:00,
2013-06-23 21:00:00,81.2,33.7,29.59,SW,214,0.0,6.0,18,0.00,,---,0.00,VWS V14.01,2013-06-24 04:00:00,
2013-06-23 21:01:00,81.0,33.5,29.60,SSW,209,2.0,4.0,18,0.00,,---,0.00,VWS V14.01,2013-06-24 04:01:00,
2013-06-23 21:05:00,80.8,33.4,29.59,SSW,204,3.0,5.0,18,0.00,,---,0.00,VWS V14.01,2013-06-24 04:05:00,
2013-06-23 21:06:00,80.5,33.1,29.59,SSW,205,3.0,5.0,18,0.00,,---,0.00,VWS V14.01,2013-06-24 04:06:00,
2013-06-23 21:10:00,80.4,33.1,29.60,SSW,207,1.0,5.0,18,0.00,,---,0.00,VWS V14.01,2013-06-24 04:10:00,
2013-06-23 21:11:00,80.2,34.2,29.60,SSW,207,2.0,4.0,19,0.00,,---,0.00,VWS V14.01,2013-06-24 04:11:00,
2013-06-23 21:15:00,80.0,34.1,29.60,SSW,209,1.0,4.0,19,0.00,,---,0.00,VWS V14.01,2013-06-24 04:15:00,
2013-06-23 21:16:00,79.8,33.9,29.60,SSW,209,4.0,5.0,19,0.00,,---,0.00,VWS V14.01,2013-06-24 04:16:00,
2013-06-23 21:20:00,79.6,33.8,29.60,SSW,209,1.0,5.0,19,0.00,,---,0.00,VWS V14.01,2013-06-24 04:20:00,
2013-06-23 21:21:00,79.4,33.6,29.60,SSW,208,1.0,3.0,19,0.00,,---,0.00,VWS V14.01,2013-06-24 04:21:00,
2013-06-23 21:25:00,79.1,33.3,29.60,SSW,207,1.0,3.0,19,0.00,,---,0.00,VWS V14.01,2013-06-24 04:25:00,
2013-06-23 21:26:00,78.7,33.0,29.60,SSW,207,0.0,2.0,19,0.00,,---,0.00,VWS V14.01,2013-06-24 04:26:00,
2013-06-23 21:30:00,78.6,32.9,29.60,SSW,207,0.0,2.0,19,0.00,,---,0.00,VWS V14.01,2013-06-24 04:30:00,
2013-06-23 21:31:00,78.2,32.6,29.60,SSW,202,3.0,4.0,19,0.00,,---,0.00,VWS V14.01,2013-06-24 04:31:00,
2013-06-23 21:35:00,78.1,32.5,29.60,SSW,201,2.0,4.0,19,0.00,,---,0.00,VWS V14.01,2013-06-24 04:35:00,
2013-06-23 21:36:00,78.1,32.5,29.60,SSW,201,2.0,4.0,19,0.00,,---,0.00,VWS V14.01,2013-06-24 04:36:00,
2013-06-23 21:40:00,78.1,32.5,29.60,SSW,195,0.0,4.0,19,0.00,,---,0.00,VWS V14.01,2013-06-24 04:40:00,
2013-06-23 21:41:00,78.0,32.4,29.60,SSW,195,0.0,1.0,19,0.00,,---,0.00,VWS V14.01,2013-06-24 04:41:00,
2013-06-23 21:45:00,78.0,33.7,29.61,SSW,195,0.0,1.0,20,0.00,,---,0.00,VWS V14.01,2013-06-24 04:45:00,
2013-06-23 21:46:00,77.8,33.6,29.60,SSW,195,0.0,2.0,20,0.00,,---,0.00,VWS V14.01,2013-06-24 04:46:00,
2013-06-23 21:50:00,77.6,33.4,29.61,SSW,195,0.0,2.0,20,0.00,,---,0.00,VWS V14.01,2013-06-24 04:50:00,
2013-06-23 21:51:00,77.3,33.1,29.61,SSW,195,0.0,0.0,20,0.00,,---,0.00,VWS V14.01,2013-06-24 04:51:00,
2013-06-23 21:55:00,77.1,33.0,29.61,SSW,195,0.0,0.0,20,0.00,,---,0.00,VWS V14.01,2013-06-24 04:55:00,
2013-06-23 21:56:00,76.7,32.7,29.61,SSW,195,0.0,0.0,20,0.00,,---,0.00,VWS V14.01,2013-06-24 04:56:00,
2013-06-23 22:00:00,76.5,32.5,29.61,SSW,195,0.0,1.0,20,0.00,,---,0.00,VWS V14.01,2013-06-24 05:00:00,
2013-06-23 22:01:00,76.0,32.1,29.61,SSW,195,0.0,0.0,20,0.00,,---,0.00,VWS V14.01,2013-06-24 05:01:00,
2013-06-23 22:05:00,75.7,31.8,29.61,SSW,195,0.0,0.0,20,0.00,,---,0.00,VWS V14.01,2013-06-24 05:05:00,
2013-06-23 22:06:00,75.2,32.6,29.61,SSW,195,0.0,0.0,21,0.00,,---,0.00,VWS V14.01,2013-06-24 05:06:00,
2013-06-23 22:10:00,74.9,32.4,29.61,SSW,195,0.0,0.0,21,0.00,,---,0.00,VWS V14.01,2013-06-24 05:10:00,
2013-06-23 22:11:00,74.7,32.2,29.61,SSW,195,0.0,0.0,21,0.00,,---,0.00,VWS V14.01,2013-06-24 05:11:00,
2013-06-23 22:15:00,74.6,32.1,29.61,SSW,195,0.0,0.0,21,0.00,,---,0.00,VWS V14.01,2013-06-24 05:15:00,
2013-06-23 22:16:00,74.6,32.1,29.61,SSW,195,0.0,0.0,21,0.00,,---,0.00,VWS V14.01,2013-06-24 05:16:00,
2013-06-23 22:20:00,74.6,32.1,29.61,SSW,195,0.0,0.0,21,0.00,,---,0.00,VWS V14.01,2013-06-24 05:20:00,
2013-06-23 22:21:00,74.6,32.1,29.61,SSW,195,0.0,0.0,21,0.00,,---,0.00,VWS V14.01,2013-06-24 05:21:00,
2013-06-23 22:25:00,74.6,32.1,29.61,SSW,195,0.0,0.0,21,0.00,,---,0.00,VWS V14.01,2013-06-24 05:25:00,
2013-06-23 22:26:00,74.7,32.2,29.61,SSW,195,0.0,0.0,21,0.00,,---,0.00,VWS V14.01,2013-06-24 05:26:00,
2013-06-23 22:30:00,74.8,32.3,29.62,SSW,195,0.0,0.0,21,0.00,,---,0.00,VWS V14.01,2013-06-24 05:30:00,
2013-06-23 22:31:00,74.9,32.4,29.62,SSW,200,2.0,3.0,21,0.00,,---,0.00,VWS V14.01,2013-06-24 05:31:00,
2013-06-23 22:35:00,75.4,32.8,29.62,SSW,198,1.0,3.0,21,0.00,,---,0.00,VWS V14.01,2013-06-24 05:35:00,
2013-06-23 22:36:00,76.0,33.3,29.62,SSW,205,2.0,3.0,21,0.00,,---,0.00,VWS V14.01,2013-06-24 05:36:00,
2013-06-23 22:40:00,76.3,33.5,29.61,SSW,198,0.0,3.0,21,0.00,,---,0.00,VWS V14.01,2013-06-24 05:40:00,
2013-06-23 22:41:00,76.4,33.6,29.62,SSW,198,0.0,0.0,21,0.00,,---,0.00,VWS V14.01,2013-06-24 05:41:00,
2013-06-23 22:45:00,76.3,33.5,29.62,SSW,198,0.0,0.0,21,0.00,,---,0.00,VWS V14.01,2013-06-24 05:45:00,
2013-06-23 22:46:00,75.8,33.1,29.62,SSW,198,0.0,0.0,21,0.00,,---,0.00,VWS V14.01,2013-06-24 05:46:00,
2013-06-23 22:50:00,75.1,32.5,29.61,SSW,198,0.0,0.0,21,0.00,,---,0.00,VWS V14.01,2013-06-24 05:50:00,
2013-06-23 22:51:00,74.2,33.0,29.62,SSW,198,0.0,0.0,22,0.00,,---,0.00,VWS V14.01,2013-06-24 05:51:00,
2013-06-23 22:55:00,73.7,32.5,29.62,SSW,198,0.0,0.0,22,0.00,,---,0.00,VWS V14.01,2013-06-24 05:55:00,
2013-06-23 22:56:00,73.1,33.1,29.62,SSE,164,0.0,1.0,23,0.00,,---,0.00,VWS V14.01,2013-06-24 05:56:00,
2013-06-23 23:00:00,73.1,33.1,29.62,SSE,164,0.0,1.0,23,0.00,,---,0.00,VWS V14.01,2013-06-24 06:00:00,
2013-06-23 23:01:00,73.2,33.2,29.62,SSE,163,0.0,0.0,23,0.00,,---,0.00,VWS V14.01,2013-06-24 06:01:00,
2013-06-23 23:05:00,73.2,33.2,29.62,SSE,163,0.0,0.0,23,0.00,,---,0.00,VWS V14.01,2013-06-24 06:05:00,
2013-06-23 23:06:00,73.3,33.3,29.62,SSE,163,0.0,0.0,23,0.00,,---,0.00,VWS V14.01,2013-06-24 06:06:00,
2013-06-23 23:10:00,73.4,33.4,29.62,SSE,163,0.0,0.0,23,0.00,,---,0.00,VWS V14.01,2013-06-24 06:10:00,
2013-06-23 23:11:00,73.4,33.4,29.62,SSE,163,0.0,0.0,23,0.00,,---,0.00,VWS V14.01,2013-06-24 06:11:00,
2013-06-23 23:15:00,73.4,33.4,29.62,SSE,163,0.0,0.0,23,0.00,,---,0.00,VWS V14.01,2013-06-24 06:15:00,
2013-06-23 23:16:00,73.2,33.2,29.62,SSE,163,0.0,0.0,23,0.00,,---,0.00,VWS V14.01,2013-06-24 06:16:00,
2013-06-23 23:20:00,73.2,33.2,29.62,SSE,163,0.0,0.0,23,0.00,,---,0.00,VWS V14.01,2013-06-24 06:20:00,
2013-06-23 23:22:00,73.1,33.1,29.62,SSE,163,0.0,0.0,23,0.00,,---,0.00,VWS V14.01,2013-06-24 06:22:00,
2013-06-23 23:25:00,73.1,33.1,29.62,SSE,163,0.0,0.0,23,0.00,,---,0.00,VWS V14.01,2013-06-24 06:25:00,
2013-06-23 23:27:00,73.5,33.5,29.62,SSE,163,0.0,1.0,23,0.00,,---,0.00,VWS V14.01,2013-06-24 06:27:00,
2013-06-23 23:30:00,73.6,33.5,29.62,SSE,163,0.0,1.0,23,0.00,,---,0.00,VWS V14.01,2013-06-24 06:30:00,
2013-06-23 23:32:00,73.7,33.6,29.62,SSE,163,0.0,0.0,23,0.00,,---,0.00,VWS V14.01,2013-06-24 06:32:00,
2013-06-23 23:35:00,73.7,33.6,29.63,SSE,163,0.0,0.0,23,0.00,,---,0.00,VWS V14.01,2013-06-24 06:35:00,
2013-06-23 23:37:00,73.7,33.6,29.62,SSE,163,0.0,0.0,23,0.00,,---,0.00,VWS V14.01,2013-06-24 06:37:00,
2013-06-23 23:40:00,73.7,33.6,29.63,SSE,163,0.0,0.0,23,0.00,,---,0.00,VWS V14.01,2013-06-24 06:40:00,
2013-06-23 23:42:00,73.5,33.5,29.63,SSE,163,0.0,0.0,23,0.00,,---,0.00,VWS V14.01,2013-06-24 06:42:00,
2013-06-23 23:45:00,73.5,33.5,29.63,SSE,150,0.0,0.0,23,0.00,,---,0.00,VWS V14.01,2013-06-24 06:45:00,
2013-06-23 23:47:00,73.2,33.2,29.63,SE,134,0.0,1.0,23,0.00,,---,0.00,VWS V14.01,2013-06-24 06:47:00,
2013-06-23 23:50:00,73.1,33.1,29.63,SE,134,0.0,1.0,23,0.00,,---,0.00,VWS V14.01,2013-06-24 06:50:00,
2013-06-23 23:52:00,72.3,33.5,29.63,SE,134,0.0,0.0,24,0.00,,---,0.00,VWS V14.01,2013-06-24 06:52:00,
2013-06-23 23:55:00,72.1,33.3,29.63,SE,134,0.0,0.0,24,0.00,,---,0.00,VWS V14.01,2013-06-24 06:55:00,
2013-06-23 23:57:00,71.4,32.8,29.63,SE,134,0.0,0.0,24,0.00,,---,0.00,VWS V14.01,2013-06-24 06:57:00,